Details From TJSJ - San Juan - Luis Munoz Marin Intl
To TNCM - St Maarten - Princess Juliana Intl
Flight Number -
Tags generated
Created
Modified
Stats Distance 167 nm / 309 km
Max Altitude 19,100 ft / 5,822 m
Waypoints 3
Social Downloads 0
Likes 0
Share VATSIM

Download

Looking for another format? Having issues loading an existing format? Contact us
Advertisement - Login to hide

Notes

Basic altitude profile: - Ascent Rate: 2500ft/min - Ascent Speed: 250kts - Cruise Altitude: 12000ft - Cruise Speed: 420kts - Descent Rate: 1500ft/min - Descent Speed: 250kts Options: - Use NATs: yes - Use PACOTS: yes - Use low airways: yes - Use high airways: yes

Route

TJSJ PASIC TNCM

ID Type Via Altitude Latitude Longitude Leg Dist Tot Dist Heading (true) Name
O TJSJ APT - 0 ft / 0 m 18.43878˚ -66.00202˚ - 0 nm - San Juan - Luis Munoz Marin Intl
PASIC FIX - 19,100 ft / 5,822 m 18.29481˚ -64.65002˚ 77 nm 77 nm 96° / 97° -
O TNCM APT - 0 ft / 0 m 18.04089˚ -63.10897˚ 89 nm 166 nm 100° / 100° St Maarten - Princess Juliana Intl

Altitude Profile

Advertisement - Login to hide

Weather


0- 5 10 15 20 25 30 35+ Temperature / ° C

Clouds and Precipitation
Forecast for 2018-05-23 12:00 UTC. Updated 2 hours ago

Ground ~20,000 ft ~40,000 ft Winds

TJSJ

Details ICAO TJSJ (SJU)
Name San Juan - Luis Munoz Marin Intl
Region USA (Puerto Rico)
Timezone America/Puerto_Rico (UTC-4.0)
Stats Elevation 9 ft / 3 m (AMSL)
Location 18.438777° -66.002018°
Runways 2
Magnetic Variation 13.242° W

METAR

TJSJ 231256Z 08014G18KT 10SM FEW027 FEW036 FEW100 28/22 A3010

Decode

TAF

TAF TJSJ 231130Z 2312/2412 11007KT P6SM FEW030 FM231400 07016KT P6SM FEW025 SCT035 FM231600 07019G25KT P6SM VCSH SCT030 BKN050 FM232300 09011KT P6SM SCT030

Decode

Departure Runways

ID Width Length Bearing (true) Bearing (mag) Surface Threshold Offset Overrun Length
08 200 ft / 61 m 9,781 ft / 2,981 m 66.87° 80.11° Asphalt 0 ft / 0 m 200 ft / 61 m
10 151 ft / 46 m 8,007 ft / 2,440 m 90.14° 103.38° Concrete 0 ft / 0 m 200 ft / 61 m
26 200 ft / 61 m 9,781 ft / 2,981 m 246.88° 260.12° Asphalt 0 ft / 0 m 230 ft / 70 m
28 151 ft / 46 m 8,007 ft / 2,440 m 270.15° 283.39° Concrete 0 ft / 0 m 200 ft / 61 m

TNCM

Details ICAO TNCM (SXM)
Name St Maarten - Princess Juliana Intl
Region Caribbean Netherlands, Aruba, Curaçao, Sint Maarten
Timezone Unknown (UTC+0.0)
Stats Elevation 12 ft / 4 m (AMSL)
Location 18.040889° -63.108974°
Runways 1
Magnetic Variation 14.337° W

METAR

TNCM 231300Z 09011KT 050V130 9999 SCT018 28/22 Q1019 A3011 NOSIG

Decode

TAF

TAF TAF TNCM 231130Z 2312/2412 09012KT P6SM SCT020

Decode

Destination Runways

ID Width Length Bearing (true) Bearing (mag) Surface Threshold Offset Overrun Length
10 148 ft / 45 m 7,464 ft / 2,275 m 81.43° 95.77° Asphalt 0 ft / 0 m 151 ft / 46 m
28 148 ft / 45 m 7,464 ft / 2,275 m 261.44° 275.78° Asphalt 397 ft / 121 m 0 ft / 0 m

Popular Alternatives